Temp
12 12 12 12 12 12 12 12 12 12 12 12 12 11 11 11 11 11 10 10 10 10 10 10 11 11 11 11 11 11 11 10 10 10 10 10 11 11 11 11 11 11 11 11 11 11 11 11 12 12 11 11 12 12 12 12 12 12 12 12 13 12 12
12 12 12 12 12 12 12 12 12 12 12 12 11 11 11 11 11 11 11 10 10 10 10 10 11 11 11 11 11 11 11 11 11 11 10 10 10 10 10 10 11 11 11 11 11 11 11 11 11 11 11 11 11 11 11 11 12 12 12 12 13 12 12
12 12 12 12 12 12 12 12 11 11 11 11 11 11 11 11 11 11 11 11 11 10 10 11 11 11 11 11 11 11 11 11 11 11 11 11 10 11 10 10 10 10 10 11 11 10 10 11 10 10 11 11 11 11 11 11 11 11 12 12 12 12 12
13 12 12 12 12 12 12 12 11 11 11 11 11 11 11 11 11 11 11 11 11 11 11 11 11 11 11 11 11 11 11 11 11 11 11 11 11 11 11 10 10 10 10 10 10 10 10 10 10 10 10 11 11 11 11 12 12 11 11 12 12 12 12
13 13 12 12 12 12 12 11 11 11 10 11 11 11 11 11 11 11 10 10 10 11 11 10 11 11 11 11 11 11 11 11 11 11 11 11 11 11 11 11 10 10 10 10 9 9 9 9 9 10 10 11 11 11 11 11 12 12 12 12 12 12 12
13 13 12 12 12 11 11 11 11 11 10 10 11 11 11 11 11 11 10 10 10 10 10 10 10 10 10 10 10 10 10 10 11 11 11 11 11 11 10 10 10 9 10 10 10 10 9 9 9 9 10 10 10 10 10 11 11 12 12 12 12 12 12
13 13 13 12 12 11 11 11 11 11 10 10 10 11 11 11 11 11 10 10 10 10 10 10 10 10 10 10 10 10 10 10 10 10 10 10 10 10 10 10 10 9 9 10 10 9 8 8 8 9 9 10 10 10 11 11 11 11 12 12 12 12 12
13 13 13 12 12 12 11 11 11 11 10 10 10 10 11 11 10 10 11 10 10 10 10 10 10 10 10 10 10 10 10 10 10 10 10 10 10 10 10 10 9 9 9 9 9 8 8 8 8 8 8 9 10 11 11 12 12 12 12 12 11 11 12
13 13 13 13 12 12 12 11 11 11 11 10 10 10 10 10 10 10 10 10 11 10 10 10 10 10 10 10 10 10 10 10 10 10 10 10 10 10 10 10 9 8 9 9 8 8 8 8 8 8 7 8 9 10 11 12 12 12 12 12 12 12 11
13 13 13 13 13 13 12 12 11 11 11 10 10 10 10 10 10 10 10 10 10 10 10 10 10 10 10 10 10 10 10 10 10 9 9 9 9 9 9 9 8 8 9 9 8 8 8 8 8 7 7 7 8 9 10 11 11 12 11 11 11 11 11
13 13 13 13 13 13 12 12 12 11 11 11 10 11 10 10 10 10 10 10 10 10 10 10 10 10 10 9 9 10 9 9 9 9 9 9 9 9 9 9 8 8 8 8 8 8 8 8 7 6 6 7 7 7 8 9 10 10 11 10 11 11 11
14 13 13 13 13 13 13 12 12 12 11 11 11 11 10 10 10 10 10 10 10 10 10 10 10 9 9 9 9 9 9 9 9 9 9 9 9 9 8 9 8 8 8 8 7 8 8 8 7 7 7 6 6 7 7 7 8 9 10 10 10 10 10
13 13 13 13 13 13 13 12 12 12 12 11 11 11 11 10 10 10 10 10 10 10 10 9 9 9 9 9 9 8 9 9 8 8 8 8 8 8 7 7 7 7 8 7 7 7 7 7 7 7 7 6 6 6 6 7 7 8 9 9 9 9 9
13 13 13 13 13 13 13 13 12 12 12 11 11 11 11 10 10 10 10 10 10 10 9 9 9 9 9 9 9 8 9 9 8 7 8 8 8 8 7 7 6 6 7 7 6 6 6 6 6 6 6 6 6 6 6 7 7 8 8 8 8 8 8
13 13 13 13 13 13 13 13 12 12 12 12 11 11 11 11 10 10 10 10 10 9 9 9 9 9 9 9 9 9 9 8 8 8 8 7 7 7 8 7 6 6 7 7 6 6 6 6 6 6 6 6 6 6 6 6 7 7 7 7 7 7 7
12 12 12 12 12 12 12 12 12 12 12 12 11 11 11 10 10 10 10 10 10 9 9 9 9 9 9 9 9 9 9 8 8 8 8 8 7 7 7 7 7 6 7 6 6 6 6 6 6 6 6 6 6 6 6 6 6 6 7 7 7 7 7
12 12 11 11 11 12 12 12 12 11 11 11 11 11 11 10 10 10 10 10 9 9 9 9 9 9 8 8 8 8 8 8 8 8 8 8 8 7 8 8 7 6 6 6 6 6 6 5 6 6 6 6 5 5 5 5 5 5 6 6 6 7 7
11 11 10 10 10 10 11 11 10 11 11 11 11 11 10 10 10 9 10 10 10 10 9 9 9 9 8 8 8 8 8 8 8 8 8 8 8 8 8 8 8 7 7 6 6 6 6 6 6 6 6 5 5 5 5 5 5 5 5 5 6 6 6
10 10 9 9 9 10 10 9 9 9 9 10 10 10 10 10 9 9 9 10 10 10 9 9 9 9 9 8 8 8 8 8 8 8 8 8 8 8 8 8 8 8 7 6 6 6 6 6 7 6 6 6 5 5 5 5 5 5 5 5 5 5 6
10 10 9 9 10 10 10 10 9 9 9 9 10 10 10 10 10 10 9 10 9 9 9 9 9 9 9 8 8 8 8 8 8 8 8 8 8 8 8 8 8 8 8 7 6 6 6 6 6 6 6 5 5 4 4 5 5 5 5 5 5 5 6
10 10 10 10 10 10 10 10 9 9 9 9 10 10 10 11 10 10 10 9 9 8 8 8 8 8 8 8 8 8 8 8 7 7 8 8 8 8 8 8 8 8 8 8 7 7 6 6 6 6 5 5 4 4 3 4 4 4 4 5 5 5 5
11 11 11 11 11 10 9 9 9 9 9 9 9 9 10 10 11 10 10 9 8 8 8 8 8 8 7 7 8 8 8 7 7 7 7 7 7 7 7 7 7 7 8 8 7 7 7 6 6 6 6 5 5 4 3 3 3 4 4 4 5 5 5
11 11 11 11 11 11 10 9 9 9 9 9 9 9 9 9 9 9 9 8 7 7 7 7 7 7 7 7 7 7 7 7 7 7 7 7 7 7 7 6 6 7 7 8 8 7 7 7 6 6 6 5 5 4 4 3 3 3 3 4 4 5 5
11 11 11 11 11 11 11 9 8 8 8 8 8 9 9 9 8 8 7 7 7 7 7 8 8 7 7 7 7 7 7 6 6 6 6 6 6 6 6 6 6 6 7 7 7 7 7 7 6 6 6 5 5 5 4 4 4 3 3 3 4 4 4
10 10 10 11 11 11 11 10 10 9 8 8 8 9 9 9 8 7 7 7 7 8 8 8 7 7 7 7 6 6 6 6 6 6 6 6 6 5 5 5 5 6 6 6 6 6 6 6 6 6 6 6 5 5 5 4 4 4 3 3 3 3 3
9 9 10 10 10 10 11 11 11 10 8 7 8 8 8 8 7 7 7 7 8 8 7 7 7 7 7 6 6 6 5 5 5 5 5 5 5 5 5 5 5 5 5 5 5 5 5 5 5 5 5 5 5 5 5 4 4 4 3 3 3 2 3
9 10 10 10 10 10 10 10 10 10 8 7 7 8 8 7 7 7 7 7 7 7 7 7 6 6 6 6 6 5 5 5 5 5 5 5 5 5 5 4 4 4 4 4 4 4 4 4 3 3 3 3 3 2 2 2 2 2 2 2 2 2 2
9 9 10 10 10 10 9 9 9 9 8 7 7 7 7 7 7 7 7 7 7 7 6 6 6 6 5 5 5 5 4 4 4 4 4 4 4 4 4 4 4 4 4 4 4 4 4 3 3 3 2 2 2 1 1 0 0 0 0 0 0 0 0
8 8 9 9 9 9 9 9 8 8 7 6 6 7 7 7 7 7 7 7 6 6 6 5 5 5 5 5 4 4 4 4 4 4 4 4 4 4 4 4 4 4 4 4 4 4 4 3 3 2 2 1 1 0 -0 -0 -0 -0 -0 -0 -0 -1 -1
6 7 7 7 8 8 8 8 8 7 6 6 6 6 7 7 7 7 6 6 6 5 5 5 4 4 4 4 4 4 3 3 3 3 3 3 3 3 3 4 4 4 4 4 3 3 3 2 2 0 -1 -1 -1 -2 -2 -2 -1 -1 -1 -1 -1 -1 -0
6 6 6 6 7 7 7 7 7 6 5 5 6 6 6 6 6 5 5 5 4 4 4 4 4 4 4 4 4 3 3 2 2 3 3 2 2 2 2 3 3 3 3 2 2 2 1 0 -1 -2 -3 -3 -3 -3 -3 -2 -2 -2 -2 -2 -2 -2 -1
6 6 6 6 6 6 6 6 6 5 5 5 6 6 6 6 5 4 4 4 4 4 4 3 3 4 4 4 4 3 3 3 2 2 2 1 1 1 1 1 1 1 0 -0 -0 0 0 -1 -2 -3 -3 -3 -3 -3 -3 -3 -3 -3 -3 -3 -3 -3 -3
6 6 6 6 6 5 5 5 5 5 5 5 6 6 5 5 4 3 3 3 3 3 3 3 3 3 3 4 4 4 3 3 2 2 1 1 1 1 0 -0 -1 -1 -2 -2 -1 -1 -1 -2 -2 -3 -4 -4 -4 -4 -3 -3 -4 -3 -3 -3 -3 -3 -3
5 5 5 5 5 5 5 5 4 4 4 5 5 5 4 3 3 3 2 3 3 3 3 3 3 3 3 4 3 3 3 2 2 1 1 1 1 0 -0 -1 -1 -2 -2 -2 -2 -2 -2 -2 -3 -3 -4 -4 -4 -4 -4 -4 -4 -4 -4 -4 -4 -4 -4
5 4 4 5 5 5 5 4 4 4 4 4 4 3 2 2 3 3 3 3 3 2 2 2 3 3 3 3 3 2 2 2 2 2 1 1 1 -0 -1 -1 -2 -2 -2 -2 -2 -2 -3 -3 -3 -3 -3 -3 -3 -3 -4 -4 -5 -5 -5 -5 -5 -4 -4
4 4 4 4 4 4 4 4 4 4 4 3 2 2 2 3 3 3 3 2 2 2 2 2 2 3 3 3 2 2 2 2 2 1 1 1 1 0 -1 -1 -2 -3 -2 -2 -2 -3 -3 -3 -3 -3 -3 -3 -3 -3 -4 -4 -5 -5 -5 -5 -5 -5 -4
4 3 4 3 3 3 4 4 3 3 3 2 2 2 2 3 3 2 2 2 2 1 1 2 2 2 2 2 2 2 2 2 1 1 1 1 1 0 -0 -1 -1 -1 -1 -1 -1 -2 -2 -2 -2 -2 -2 -2 -3 -3 -4 -5 -5 -5 -5 -5 -5 -4 -4
Height
1531 1531 1531 1532 1532 1533 1533 1533 1533 1533 1533 1533 1533 1533 1533 1533 1533 1533 1533 1533 1533 1533 1533 1533 1533 1533 1533 1533 1533 1533 1533 1534 1534 1535 1536 1536 1536 1536 1535 1536 1536 1537 1537 1537 1538 1539 1539 1539 1539 1539 1541 1542 1541 1541 1541 1541 1542 1542 1542 1543 1544 1545 1545
1530 1531 1531 1532 1532 1532 1533 1533 1533 1533 1533 1533 1534 1533 1534 1533 1533 1533 1533 1533 1534 1534 1534 1534 1534 1534 1534 1534 1534 1534 1534 1534 1534 1535 1535 1536 1536 1536 1536 1537 1537 1537 1537 1537 1537 1538 1539 1539 1539 1539 1540 1540 1540 1540 1539 1539 1540 1541 1541 1542 1542 1543 1543
1529 1530 1531 1531 1532 1532 1533 1533 1533 1534 1534 1534 1534 1534 1534 1534 1534 1534 1534 1534 1534 1534 1535 1535 1535 1535 1534 1534 1534 1534 1534 1534 1534 1535 1535 1535 1535 1535 1536 1537 1537 1538 1538 1538 1538 1539 1539 1539 1539 1538 1538 1538 1538 1538 1538 1539 1540 1540 1540 1540 1540 1541 1541
1528 1529 1530 1531 1532 1532 1533 1533 1534 1534 1534 1534 1534 1534 1534 1534 1535 1535 1535 1535 1535 1535 1535 1535 1535 1535 1535 1535 1535 1535 1535 1535 1535 1535 1535 1535 1535 1535 1536 1536 1537 1537 1538 1538 1539 1539 1539 1539 1539 1538 1538 1537 1537 1537 1537 1537 1538 1538 1538 1538 1537 1538 1538
1528 1529 1530 1531 1532 1532 1533 1533 1534 1534 1534 1534 1534 1535 1535 1535 1535 1535 1535 1536 1536 1536 1536 1536 1536 1536 1536 1536 1536 1536 1536 1536 1536 1536 1536 1535 1535 1535 1536 1536 1536 1536 1537 1537 1537 1538 1538 1538 1538 1538 1538 1537 1537 1537 1536 1535 1535 1535 1536 1536 1535 1536 1536
1527 1528 1529 1531 1531 1532 1533 1533 1534 1534 1534 1534 1535 1535 1535 1535 1535 1535 1536 1536 1536 1536 1536 1537 1537 1537 1537 1537 1537 1536 1536 1536 1536 1536 1536 1536 1536 1536 1535 1536 1536 1536 1536 1536 1536 1536 1536 1536 1537 1537 1537 1537 1536 1536 1535 1534 1534 1534 1533 1533 1534 1535 1536
1526 1528 1529 1530 1531 1532 1533 1533 1533 1534 1534 1534 1535 1535 1535 1535 1535 1535 1536 1536 1536 1536 1537 1537 1537 1537 1537 1537 1537 1537 1536 1536 1536 1536 1536 1536 1536 1536 1535 1535 1535 1535 1535 1535 1535 1535 1535 1535 1536 1536 1536 1536 1535 1535 1534 1534 1533 1533 1532 1532 1532 1533 1534
1525 1526 1528 1529 1530 1531 1532 1532 1532 1533 1534 1534 1534 1534 1534 1535 1535 1535 1535 1536 1536 1536 1536 1536 1536 1536 1537 1537 1537 1536 1536 1536 1536 1535 1535 1535 1535 1535 1535 1535 1535 1535 1534 1534 1534 1534 1534 1534 1535 1535 1535 1535 1535 1534 1533 1533 1532 1532 1532 1532 1531 1531 1532
1524 1525 1526 1527 1528 1529 1530 1531 1531 1532 1533 1533 1533 1533 1534 1534 1535 1535 1535 1535 1535 1536 1536 1536 1536 1536 1536 1536 1536 1536 1536 1536 1535 1535 1535 1534 1534 1534 1534 1534 1534 1534 1534 1533 1533 1533 1533 1533 1533 1534 1534 1535 1535 1533 1532 1532 1531 1531 1531 1531 1531 1530 1531
1522 1523 1524 1525 1526 1527 1528 1529 1530 1531 1532 1532 1532 1533 1533 1534 1534 1534 1534 1534 1535 1535 1535 1535 1535 1535 1535 1535 1535 1535 1535 1535 1535 1535 1535 1534 1534 1534 1534 1534 1534 1534 1533 1533 1533 1533 1532 1532 1532 1532 1533 1533 1533 1533 1532 1530 1530 1530 1529 1529 1529 1529 1529
1520 1521 1522 1523 1524 1526 1527 1528 1529 1529 1530 1531 1531 1532 1532 1533 1533 1534 1534 1534 1534 1534 1534 1534 1534 1534 1534 1534 1534 1534 1534 1535 1535 1534 1534 1534 1534 1533 1533 1533 1533 1533 1532 1532 1532 1532 1532 1531 1531 1531 1531 1531 1531 1531 1531 1529 1528 1528 1528 1527 1527 1527 1527
1518 1519 1520 1521 1522 1523 1525 1526 1527 1528 1529 1530 1530 1531 1531 1532 1532 1533 1533 1533 1533 1533 1533 1533 1533 1533 1534 1533 1533 1533 1533 1534 1534 1533 1533 1533 1533 1533 1533 1532 1532 1532 1532 1531 1531 1531 1531 1530 1530 1530 1530 1530 1529 1529 1528 1528 1526 1525 1525 1525 1525 1524 1524
1516 1517 1518 1519 1520 1521 1523 1524 1525 1526 1527 1528 1528 1529 1529 1530 1531 1531 1532 1532 1532 1532 1532 1532 1532 1532 1532 1532 1532 1532 1532 1532 1533 1532 1532 1532 1532 1532 1532 1532 1531 1531 1531 1531 1530 1530 1529 1529 1528 1528 1528 1528 1528 1527 1526 1525 1524 1523 1523 1522 1521 1521 1520
1514 1515 1516 1517 1518 1520 1521 1522 1523 1524 1524 1525 1526 1527 1527 1528 1528 1529 1530 1530 1531 1531 1531 1531 1531 1531 1531 1531 1531 1531 1531 1531 1532 1531 1531 1531 1531 1531 1531 1531 1530 1530 1529 1529 1529 1529 1528 1528 1527 1527 1526 1526 1526 1525 1524 1523 1522 1520 1520 1519 1519 1518 1517
1511 1513 1514 1515 1516 1517 1518 1519 1520 1521 1522 1523 1524 1524 1525 1525 1526 1527 1527 1528 1528 1529 1529 1529 1529 1530 1530 1529 1529 1529 1529 1529 1530 1530 1530 1530 1530 1529 1529 1530 1529 1529 1528 1527 1527 1527 1527 1526 1525 1525 1525 1525 1524 1523 1523 1521 1520 1518 1517 1516 1516 1515 1514
1507 1509 1510 1511 1512 1514 1515 1516 1517 1518 1519 1520 1521 1522 1522 1522 1523 1523 1524 1525 1525 1526 1526 1527 1527 1527 1527 1527 1527 1527 1527 1527 1527 1528 1528 1528 1528 1528 1528 1528 1528 1527 1526 1526 1525 1525 1525 1524 1523 1523 1523 1522 1521 1520 1520 1519 1517 1516 1514 1513 1513 1512 1512
1504 1505 1506 1508 1508 1510 1511 1512 1513 1514 1516 1517 1517 1518 1519 1519 1519 1520 1521 1522 1522 1523 1523 1524 1524 1524 1524 1524 1524 1524 1524 1525 1525 1525 1525 1526 1526 1526 1526 1526 1526 1525 1525 1524 1524 1523 1523 1522 1521 1521 1520 1519 1518 1517 1516 1516 1514 1513 1512 1510 1510 1509 1509
1500 1501 1502 1504 1505 1506 1507 1508 1508 1509 1510 1512 1512 1514 1515 1516 1517 1518 1518 1519 1520 1520 1520 1521 1521 1521 1521 1521 1522 1522 1522 1522 1522 1522 1523 1523 1523 1523 1523 1523 1523 1523 1522 1522 1521 1521 1520 1520 1519 1518 1517 1517 1517 1516 1514 1513 1512 1511 1510 1508 1507 1507 1506
1497 1498 1500 1501 1502 1504 1505 1505 1505 1505 1506 1507 1508 1509 1512 1514 1516 1516 1515 1516 1516 1516 1516 1517 1518 1518 1518 1518 1519 1519 1519 1519 1520 1519 1520 1520 1520 1520 1520 1520 1519 1519 1519 1519 1518 1518 1517 1517 1516 1515 1515 1514 1514 1513 1512 1511 1510 1508 1507 1505 1504 1504 1503
1496 1496 1497 1498 1499 1500 1502 1503 1503 1503 1503 1503 1504 1505 1507 1510 1511 1512 1512 1511 1512 1512 1513 1513 1514 1515 1515 1515 1516 1516 1517 1517 1517 1517 1517 1517 1517 1517 1517 1517 1517 1516 1516 1516 1515 1515 1514 1513 1513 1512 1511 1511 1510 1509 1508 1508 1507 1506 1504 1502 1501 1501 1500
1496 1495 1495 1495 1495 1496 1497 1499 1500 1500 1500 1500 1500 1500 1502 1505 1505 1506 1508 1508 1509 1510 1510 1510 1511 1511 1511 1511 1512 1514 1514 1514 1514 1514 1515 1515 1514 1514 1514 1514 1513 1513 1513 1513 1512 1512 1511 1511 1510 1509 1508 1508 1507 1506 1505 1505 1504 1503 1502 1500 1498 1498 1497
1494 1494 1494 1493 1493 1493 1493 1495 1495 1496 1496 1497 1497 1496 1498 1500 1500 1500 1503 1504 1506 1507 1508 1508 1508 1508 1508 1508 1509 1511 1511 1512 1512 1512 1512 1512 1512 1512 1511 1511 1510 1509 1509 1509 1509 1509 1508 1508 1507 1505 1505 1505 1504 1503 1502 1502 1501 1500 1499 1498 1496 1495 1494
1492 1492 1492 1492 1491 1491 1491 1491 1492 1492 1492 1493 1494 1494 1494 1496 1496 1497 1499 1501 1503 1504 1504 1503 1504 1504 1506 1506 1507 1508 1508 1509 1509 1509 1510 1510 1509 1509 1508 1508 1507 1506 1505 1505 1505 1504 1504 1504 1503 1502 1501 1501 1500 1499 1498 1498 1497 1497 1496 1495 1493 1492 1491
1489 1489 1489 1489 1489 1489 1489 1489 1489 1489 1490 1490 1491 1491 1491 1493 1494 1495 1498 1499 1500 1499 1499 1500 1501 1502 1504 1504 1505 1506 1506 1506 1506 1507 1507 1507 1506 1506 1505 1505 1504 1503 1502 1501 1500 1500 1499 1498 1498 1498 1497 1496 1496 1495 1494 1493 1493 1492 1492 1491 1490 1489 1488
1486 1486 1486 1486 1487 1487 1487 1487 1487 1487 1487 1487 1487 1488 1489 1490 1490 1492 1494 1495 1494 1495 1496 1498 1500 1500 1501 1502 1503 1504 1504 1504 1504 1504 1504 1504 1503 1503 1502 1502 1501 1500 1499 1498 1497 1496 1495 1493 1492 1492 1491 1491 1490 1490 1489 1489 1488 1487 1487 1486 1485 1484 1484
1484 1484 1484 1484 1484 1484 1484 1484 1484 1484 1485 1484 1484 1485 1486 1487 1487 1489 1490 1490 1490 1491 1494 1495 1497 1498 1499 1500 1501 1502 1501 1501 1502 1502 1501 1501 1500 1500 1499 1498 1497 1496 1495 1494 1493 1492 1491 1490 1488 1486 1485 1484 1484 1483 1483 1483 1482 1482 1482 1481 1479 1478 1479
1481 1481 1481 1481 1481 1481 1481 1481 1481 1482 1482 1482 1482 1482 1483 1484 1485 1485 1486 1486 1487 1488 1490 1492 1494 1495 1496 1497 1498 1498 1498 1499 1499 1499 1498 1498 1497 1496 1496 1495 1494 1493 1492 1490 1489 1488 1487 1486 1485 1483 1482 1480 1479 1478 1477 1476 1476 1476 1475 1474 1473 1471 1472
1478 1478 1478 1478 1478 1478 1478 1478 1478 1478 1479 1480 1480 1480 1480 1481 1481 1482 1482 1482 1484 1486 1488 1490 1491 1493 1494 1494 1495 1496 1496 1496 1496 1496 1495 1494 1494 1493 1492 1491 1491 1489 1488 1487 1486 1484 1483 1482 1481 1479 1478 1477 1476 1475 1474 1473 1472 1472 1471 1469 1467 1466 1467
1475 1475 1475 1475 1475 1475 1475 1475 1475 1475 1476 1477 1477 1477 1477 1478 1478 1478 1479 1480 1482 1484 1486 1488 1489 1491 1492 1492 1493 1494 1493 1494 1493 1492 1492 1491 1490 1489 1488 1487 1487 1485 1484 1483 1482 1480 1478 1478 1476 1475 1473 1472 1471 1470 1469 1468 1468 1467 1466 1465 1463 1462 1462
1472 1472 1472 1472 1472 1472 1472 1472 1472 1472 1473 1473 1473 1473 1474 1474 1474 1475 1476 1478 1480 1482 1484 1486 1487 1488 1489 1490 1491 1492 1492 1492 1491 1490 1489 1488 1487 1486 1485 1483 1483 1482 1480 1479 1478 1476 1474 1473 1472 1470 1468 1467 1466 1465 1464 1463 1462 1461 1460 1459 1458 1457 1456
1470 1469 1469 1469 1468 1468 1468 1469 1469 1469 1469 1469 1469 1469 1470 1471 1472 1473 1475 1477 1479 1481 1483 1484 1485 1486 1487 1488 1489 1490 1490 1490 1489 1488 1487 1486 1484 1483 1481 1479 1478 1477 1476 1475 1473 1472 1471 1470 1468 1466 1464 1463 1461 1459 1459 1459 1458 1456 1455 1454 1452 1451 1450
1466 1466 1466 1465 1465 1465 1465 1465 1465 1465 1465 1466 1466 1466 1467 1468 1470 1472 1475 1477 1478 1480 1482 1483 1484 1485 1485 1486 1487 1488 1488 1488 1486 1485 1484 1483 1481 1480 1478 1476 1474 1472 1471 1470 1469 1468 1467 1466 1464 1462 1461 1458 1456 1454 1454 1454 1453 1452 1451 1450 1448 1447 1445
1462 1462 1462 1462 1462 1462 1461 1461 1461 1462 1462 1463 1463 1464 1464 1466 1468 1471 1474 1476 1478 1479 1481 1482 1483 1483 1484 1484 1484 1485 1486 1485 1483 1482 1481 1480 1478 1476 1475 1474 1472 1470 1468 1466 1465 1464 1463 1462 1460 1458 1456 1454 1451 1450 1450 1449 1448 1447 1446 1444 1443 1442 1441
1458 1458 1458 1458 1458 1457 1457 1457 1458 1459 1460 1461 1461 1462 1464 1465 1468 1470 1473 1475 1477 1479 1481 1481 1482 1482 1482 1482 1482 1483 1483 1482 1480 1479 1477 1476 1475 1473 1472 1471 1470 1468 1465 1462 1461 1460 1458 1457 1455 1453 1451 1448 1446 1445 1445 1443 1442 1441 1440 1438 1437 1436 1435
1454 1454 1454 1454 1454 1453 1453 1454 1455 1457 1458 1459 1460 1462 1464 1466 1468 1470 1472 1474 1476 1478 1480 1481 1481 1481 1481 1480 1480 1481 1480 1479 1477 1476 1474 1473 1472 1470 1469 1467 1466 1464 1461 1458 1456 1455 1453 1452 1450 1447 1445 1443 1442 1441 1440 1438 1437 1436 1434 1433 1433 1432 1431
1450 1450 1450 1450 1450 1450 1450 1452 1453 1454 1457 1458 1460 1462 1464 1466 1468 1470 1472 1473 1475 1477 1480 1480 1480 1480 1479 1479 1479 1478 1477 1476 1475 1473 1472 1470 1468 1466 1464 1463 1461 1459 1456 1454 1452 1450 1448 1447 1444 1442 1440 1439 1437 1436 1435 1433 1432 1431 1430 1429 1428 1427 1426
1447 1446 1445 1445 1446 1447 1449 1450 1451 1454 1456 1459 1461 1463 1465 1467 1469 1471 1472 1474 1475 1477 1479 1480 1479 1478 1478 1478 1477 1476 1475 1474 1472 1471 1469 1466 1464 1462 1460 1458 1456 1454 1451 1449 1447 1445 1443 1441 1439 1437 1435 1434 1433 1432 1430 1428 1427 1426 1425 1424 1423 1421 1420
Wind_Speed
9 10 9 9 8 7 7 7 7 7 7 8 7 7 8 8 8 7 7 7 7 7 6 5 5 4 3 2 2 2 3 3 1 1 1 2 1 2 3 4 4 4 5 5 7 8 7 6 8 12 13 12 14 14 13 14 12 11 13 15 14 12 11
10 10 9 8 8 7 6 7 7 7 7 7 6 7 7 7 8 8 8 8 8 8 7 7 7 7 6 6 5 4 3 1 1 3 3 2 2 3 2 3 4 3 4 5 6 6 6 6 7 8 9 11 12 12 13 16 18 19 18 17 18 16 14
12 11 10 9 8 7 6 6 6 6 6 6 5 5 6 6 7 7 7 6 6 6 6 6 7 7 7 7 7 7 7 6 4 2 1 2 4 5 4 3 3 3 4 5 5 5 6 7 8 9 11 12 13 14 15 15 17 19 19 20 22 21 21
14 13 11 10 9 8 7 6 6 6 5 4 4 4 4 4 5 5 6 5 5 4 5 5 6 6 6 6 7 7 8 7 7 6 5 3 2 2 3 3 3 4 5 4 4 4 5 6 7 8 9 11 13 15 17 18 19 19 17 19 22 22 23
14 13 12 11 10 8 7 7 7 7 6 5 4 3 3 3 3 3 4 4 4 4 4 4 5 5 6 6 7 7 8 8 8 7 7 6 5 4 3 2 3 4 5 5 6 6 5 5 6 7 8 9 11 12 13 18 21 21 19 19 19 18 19
15 14 12 11 10 9 8 8 7 7 7 6 5 4 3 2 2 2 2 2 2 3 3 3 4 5 6 6 6 7 7 7 7 7 7 7 6 5 5 5 3 3 4 5 6 6 7 6 6 6 7 8 10 11 11 14 16 17 18 17 15 14 14
17 15 13 11 10 10 9 9 8 8 8 7 6 6 4 3 3 2 2 2 1 1 2 2 3 4 4 5 5 6 6 7 7 7 6 6 6 5 5 5 5 5 6 7 6 5 5 5 4 5 7 8 10 11 11 11 10 10 11 10 9 11 11
18 17 15 13 12 11 10 10 10 9 9 8 8 8 7 6 5 5 4 3 2 2 1 0 1 2 3 3 4 5 5 7 8 8 8 8 7 6 6 5 4 5 6 6 6 6 5 6 6 6 7 8 9 10 9 8 8 8 8 7 8 9 10
20 19 17 16 14 13 12 12 11 11 10 9 10 10 9 8 8 7 6 6 5 4 3 2 2 2 2 2 3 4 5 6 7 9 9 9 10 9 8 7 4 4 6 5 5 6 7 8 8 7 7 7 9 10 9 9 8 7 7 6 6 7 7
22 21 20 18 16 14 14 13 13 13 12 11 12 11 10 9 9 9 8 8 7 7 6 5 4 4 4 4 4 5 5 6 6 7 8 9 10 10 10 9 6 6 7 6 5 7 8 8 8 7 8 8 8 10 11 10 9 7 7 6 6 6 6
22 22 21 20 18 17 16 15 15 15 14 14 13 13 12 11 11 10 10 10 9 9 8 7 7 6 5 6 6 6 6 6 6 7 7 8 9 9 10 9 8 7 9 9 8 8 8 8 8 8 9 8 9 10 11 12 13 10 9 9 8 8 7
23 22 22 22 21 19 18 18 17 16 16 16 16 15 14 13 13 12 12 12 11 11 11 10 9 7 7 7 7 7 8 7 6 7 8 8 9 9 10 10 9 9 11 10 9 9 9 9 8 8 9 9 10 12 12 14 15 13 11 10 11 10 11
25 24 23 23 22 21 20 20 19 18 18 17 17 17 17 16 16 14 14 14 13 13 13 12 11 9 9 9 8 8 9 8 6 6 8 9 9 8 8 10 9 11 13 10 9 11 10 10 11 10 10 10 11 12 13 14 17 17 15 14 15 15 15
27 27 26 25 25 24 23 22 21 21 20 19 19 19 19 19 18 17 16 15 15 15 15 14 13 12 11 11 10 10 11 9 6 6 8 9 10 10 9 9 8 11 14 13 12 11 9 11 13 11 10 10 11 12 13 14 18 19 18 16 15 15 15
29 30 30 29 29 27 26 25 24 23 22 22 21 21 21 21 20 19 18 18 17 17 16 16 15 14 13 14 14 13 13 11 9 9 9 8 8 11 12 11 10 12 15 16 15 13 12 13 13 10 10 11 12 13 13 15 17 19 19 17 16 16 16
25 27 29 30 31 31 30 29 28 28 26 24 24 23 22 22 22 21 20 20 19 19 18 18 17 16 16 16 16 16 15 13 12 12 11 9 8 10 13 13 13 14 16 17 18 17 16 16 15 13 13 13 14 15 15 16 18 20 21 20 18 17 16
21 22 23 24 27 28 29 29 29 30 29 28 27 26 25 25 24 23 23 21 21 21 21 20 19 18 18 17 17 17 16 15 14 14 13 12 11 12 14 14 14 15 17 18 20 20 18 17 17 17 16 15 14 15 16 17 19 20 20 21 20 18 17
19 18 17 17 19 22 23 23 23 25 26 28 29 29 28 26 23 23 23 23 23 23 23 22 21 20 20 20 19 18 18 17 16 16 16 15 15 16 16 17 17 18 19 20 21 21 21 20 20 19 18 17 15 14 16 17 19 20 21 22 21 20 20
15 15 15 15 17 17 17 17 18 18 19 23 27 29 28 27 25 24 24 25 25 25 25 24 23 22 23 23 22 21 21 20 19 19 18 18 18 18 19 19 21 22 22 23 24 24 23 23 22 22 21 20 18 17 18 19 20 20 22 23 23 22 21
12 14 15 17 19 18 18 18 17 16 17 19 24 27 26 26 28 28 28 28 27 27 27 26 24 24 25 25 24 24 23 22 22 21 20 19 19 20 20 20 22 23 25 26 26 26 25 24 24 23 22 22 21 20 20 20 20 20 22 24 23 22 21
9 10 11 15 19 20 21 21 17 15 16 19 22 24 23 24 28 29 29 29 29 28 27 27 26 26 26 26 25 24 24 23 22 22 21 21 21 21 21 22 23 25 26 27 27 26 25 25 25 25 23 23 22 21 20 19 19 19 21 22 23 22 21
10 10 10 12 14 15 16 17 16 15 16 17 19 20 20 23 27 29 29 30 28 26 26 27 27 28 27 26 26 24 24 24 23 22 22 22 22 22 23 24 26 27 28 28 28 27 26 25 25 26 25 24 24 23 22 20 19 19 20 20 21 21 20
13 13 12 12 13 13 12 12 14 15 16 17 17 18 19 21 24 25 26 27 25 25 28 31 31 30 28 27 26 24 24 24 23 22 22 22 22 23 24 26 28 30 31 31 30 29 28 27 26 27 26 25 25 25 24 24 22 21 21 21 22 21 21
15 15 15 14 15 15 14 13 12 13 15 17 18 18 19 20 21 20 20 23 25 29 34 35 33 31 28 26 24 23 23 23 22 22 21 22 23 24 26 28 30 31 32 32 31 31 30 30 29 29 28 28 27 27 27 28 28 26 24 24 23 22 23
16 16 16 15 15 17 17 17 15 13 13 15 17 19 20 20 20 20 22 26 31 34 37 36 32 30 28 25 24 22 22 22 21 20 21 22 24 25 27 29 30 31 31 32 31 31 31 32 32 32 32 31 31 30 29 29 30 30 29 28 27 25 24
16 16 17 17 17 17 18 19 19 17 14 13 14 17 19 18 17 19 24 30 34 35 36 35 33 30 27 25 23 21 21 21 20 20 21 23 25 27 28 29 29 30 31 32 32 32 31 32 32 33 33 33 33 32 32 31 30 30 31 31 32 32 30
17 17 17 18 18 18 18 18 20 18 14 12 15 17 18 17 17 20 26 32 34 36 36 35 32 29 26 24 22 20 19 20 19 21 23 25 27 28 28 28 29 29 30 31 31 31 31 31 31 31 31 31 30 29 30 31 30 30 30 31 33 35 34
18 18 18 18 19 19 19 19 20 18 14 13 15 16 16 17 19 23 29 32 35 36 35 32 29 26 23 21 19 18 19 19 20 23 25 26 27 28 28 29 29 30 30 31 30 31 31 30 30 31 31 31 31 30 29 28 25 25 25 26 27 27 26
18 18 18 19 19 20 20 21 20 18 14 13 14 15 16 18 22 25 29 33 35 35 32 28 25 22 19 18 16 17 19 20 21 24 25 26 27 28 28 29 29 30 30 30 30 31 32 30 30 30 31 31 29 28 27 25 25 27 27 27 27 26 25
17 18 18 19 19 20 20 20 19 16 13 13 15 17 18 19 22 26 30 33 34 32 28 24 21 18 17 16 14 16 17 17 19 22 24 25 26 27 28 29 29 30 30 30 30 30 30 29 28 27 26 26 24 23 22 21 22 26 28 31 33 34 36
17 18 18 18 18 19 19 19 17 14 13 15 18 20 19 19 22 27 31 31 30 26 23 20 17 15 15 15 14 15 15 16 18 21 22 23 24 25 28 30 30 30 29 28 28 28 27 27 26 22 21 22 23 23 22 20 20 21 23 26 30 32 34
21 20 20 19 18 19 18 17 18 17 16 16 19 20 20 21 24 28 29 28 25 21 18 15 13 13 14 14 15 16 16 17 18 19 19 20 22 24 26 27 26 27 27 26 27 27 26 25 24 22 21 22 23 24 23 21 20 20 20 21 22 23 25
24 24 23 20 19 18 19 20 22 20 18 18 19 20 20 24 28 29 26 22 19 16 13 11 11 11 12 14 16 16 16 16 17 18 19 21 23 25 25 22 20 21 23 26 28 28 27 26 26 25 23 22 24 25 23 21 21 22 23 24 23 22 23
25 24 22 19 19 20 22 22 21 20 19 19 20 21 24 27 28 26 21 16 13 11 9 9 9 9 11 13 14 14 14 14 16 19 21 23 24 24 23 20 19 19 23 26 27 27 27 26 27 27 26 26 27 28 27 27 26 26 28 28 26 25 25
23 21 17 17 20 23 23 20 18 17 18 19 22 25 27 26 24 21 17 14 11 8 6 7 8 8 8 9 10 11 13 14 17 20 22 23 24 24 23 22 20 20 23 27 28 27 27 25 26 27 29 30 30 30 30 30 28 26 27 26 24 23 22
20 17 15 17 21 21 20 18 16 16 19 24 27 27 25 22 19 16 13 10 7 5 4 5 5 4 5 7 9 11 13 15 17 19 21 23 24 24 24 22 20 21 25 28 27 26 25 24 25 26 27 27 27 26 26 28 27 26 26 25 24 25 25
16 14 16 18 19 18 18 18 18 21 25 27 27 25 21 17 15 12 10 8 6 5 3 2 1 3 4 7 9 11 13 15 17 18 21 22 22 22 22 22 23 25 27 28 26 25 24 23 22 23 23 22 23 23 24 25 25 25 25 26 27 30 30
Wind_Direction
161 162 160 155 149 142 130 118 112 108 103 101 99 97 95 94 96 96 96 96 93 89 89 96 102 102 105 114 141 172 190 200 201 203 245 287 305 297 285 275 267 251 238 225 215 219 233 250 256 252 248 247 248 252 247 234 231 238 241 239 239 245 251
170 168 167 166 161 151 140 130 124 117 111 108 104 100 99 96 95 92 88 86 85 85 82 77 78 76 71 70 71 74 85 131 190 199 211 242 256 238 253 281 282 278 268 259 243 237 245 257 259 251 246 249 253 257 258 252 249 251 253 253 252 250 248
179 177 177 181 177 168 160 147 136 131 123 117 112 107 103 101 99 96 92 86 81 82 80 73 72 67 62 62 62 61 59 56 57 65 180 230 250 243 234 256 283 279 270 272 273 268 265 266 267 265 262 265 266 262 261 260 257 259 260 258 258 256 253
189 188 190 194 193 187 183 171 159 155 149 138 127 119 115 109 104 100 97 93 86 80 72 69 70 68 65 63 60 58 54 48 47 44 40 37 351 292 254 234 240 250 243 244 254 257 262 268 276 280 279 281 281 276 271 264 260 263 266 265 265 263 261
199 199 201 204 204 201 199 193 182 175 174 171 160 146 139 127 116 108 103 101 97 90 84 76 74 71 66 60 55 51 46 41 37 34 31 27 21 13 339 281 247 245 240 235 240 240 243 250 264 278 281 283 285 284 279 272 268 266 263 264 268 269 270
207 208 208 212 215 209 206 210 204 193 192 193 190 188 180 167 159 139 121 123 119 110 106 94 82 75 67 62 55 46 39 35 31 26 24 19 14 10 357 346 335 291 274 270 263 255 253 252 259 274 278 278 280 279 277 277 277 275 270 267 264 261 263
212 215 213 216 221 214 210 222 221 207 206 209 208 210 210 205 208 214 206 192 180 150 121 103 88 73 64 55 47 42 31 22 21 19 16 16 13 9 3 353 347 335 322 317 312 299 284 277 273 275 280 283 280 278 278 277 272 273 279 279 261 249 248
214 220 220 218 222 221 221 231 229 217 215 216 215 219 223 223 226 236 242 242 243 243 242 116 72 61 57 42 27 26 17 7 6 5 4 5 4 4 5 0 354 339 327 325 323 315 300 286 278 275 283 291 289 283 279 276 271 266 266 267 262 254 251
215 220 223 225 225 224 227 235 235 229 221 216 220 228 231 229 232 241 250 257 262 265 272 286 314 349 5 8 0 356 356 356 356 356 355 354 355 358 356 359 3 335 324 326 316 302 292 286 286 283 282 286 292 291 287 282 278 273 263 260 265 256 247
218 221 225 230 230 228 230 234 238 239 232 223 228 240 241 237 238 243 249 256 263 269 275 284 295 310 326 330 329 329 331 335 341 347 347 346 348 351 350 353 352 333 331 331 314 305 300 295 291 285 279 279 282 286 291 290 284 277 270 266 267 263 256
222 225 227 231 233 232 234 235 238 242 241 235 237 244 246 244 246 247 252 258 262 266 271 277 284 295 310 313 311 310 311 317 321 328 335 340 341 342 343 346 345 335 334 333 324 319 317 311 305 294 287 282 275 275 280 285 285 280 274 273 271 268 263
227 228 230 233 235 235 236 238 239 241 244 243 243 245 246 248 251 252 256 262 265 268 270 271 276 285 294 301 304 302 304 309 311 316 325 330 334 339 339 342 342 334 335 338 330 324 324 317 309 300 289 281 275 273 273 276 279 277 273 276 273 267 266
234 235 235 237 238 240 241 243 244 244 244 245 246 247 247 249 252 254 256 261 265 267 269 270 273 277 283 290 293 289 295 304 303 306 315 321 328 335 338 340 336 329 335 340 329 326 328 319 314 311 297 285 277 275 274 273 274 275 275 276 276 275 275
242 242 243 243 244 245 246 249 251 251 250 249 247 248 249 249 251 253 255 258 261 264 266 268 270 273 276 280 282 282 289 295 287 285 300 311 319 323 330 334 326 322 329 333 330 330 323 312 315 314 299 288 279 276 274 272 275 279 280 279 278 278 278
248 249 250 251 251 251 251 252 254 255 255 254 250 249 248 249 250 251 254 256 257 259 261 263 265 267 268 271 277 280 284 285 277 278 290 300 306 313 322 328 321 318 324 328 330 328 319 313 314 303 288 282 276 273 271 271 275 280 282 282 280 280 280
250 253 255 256 256 256 256 256 257 258 259 258 255 251 248 248 249 249 251 252 253 254 256 259 263 264 264 267 272 275 277 277 275 279 287 292 295 303 313 320 319 318 322 325 325 325 321 317 314 304 294 286 278 276 274 273 275 277 281 284 283 282 283
245 250 252 254 256 256 256 257 259 261 262 261 258 253 248 247 247 246 246 247 248 251 255 259 263 263 261 263 266 271 274 274 273 275 279 283 288 296 304 310 313 315 318 320 321 322 319 313 310 307 302 294 287 283 280 279 279 278 279 281 282 282 280
241 243 244 246 248 252 253 253 255 258 260 259 256 252 247 243 238 236 240 244 246 251 254 256 260 260 259 261 262 266 270 272 273 274 275 280 286 291 298 304 308 311 315 317 318 318 314 311 310 308 303 297 288 280 277 278 278 278 277 278 280 281 280
245 244 243 241 239 245 250 248 247 250 251 250 253 254 251 246 241 234 235 241 245 248 250 251 254 255 255 258 260 262 266 269 270 271 273 278 284 289 295 301 305 309 313 315 316 315 313 312 310 308 304 300 293 285 281 281 280 279 278 279 279 280 280
259 254 250 246 244 247 253 252 247 244 241 244 253 257 253 249 247 241 238 240 241 242 244 245 246 247 250 254 256 260 264 266 267 268 270 274 278 285 291 296 301 305 308 311 313 314 313 311 309 306 304 301 297 292 287 285 282 279 279 280 280 279 280
276 270 266 261 257 254 253 252 248 242 240 242 251 255 250 246 245 243 241 239 234 231 234 236 238 240 243 247 250 256 260 262 264 266 270 274 278 284 290 295 299 301 303 306 308 309 307 306 305 303 301 298 294 290 286 283 279 277 277 278 278 278 278
281 283 285 281 273 262 252 248 244 238 236 238 246 249 245 242 241 240 239 235 226 222 224 226 231 234 236 240 246 252 257 258 260 263 268 275 280 286 293 298 301 301 301 303 305 305 304 303 302 300 299 297 293 288 284 280 276 274 274 274 275 277 276
282 281 281 283 283 278 266 251 240 234 237 239 242 244 241 240 240 235 232 227 217 213 219 223 228 233 236 240 245 249 253 255 257 261 268 275 283 290 295 299 302 303 303 304 304 303 303 302 301 299 297 294 290 286 281 277 274 272 271 271 272 273 272
290 286 281 279 279 278 276 266 249 240 241 242 241 241 239 237 237 230 221 217 217 222 228 231 234 238 240 242 245 248 252 255 259 265 272 279 286 292 297 300 303 304 304 305 305 305 305 304 302 299 296 293 289 284 280 277 274 271 268 268 269 269 269
291 289 286 282 277 274 273 271 264 254 245 244 245 242 236 231 230 224 218 222 229 234 236 236 237 238 239 242 246 250 253 257 263 270 277 283 289 294 298 301 302 303 303 304 305 306 305 304 303 300 297 294 290 286 282 277 274 272 268 266 265 264 264
288 286 285 284 280 275 271 268 267 262 250 245 243 235 230 226 221 217 221 228 233 234 234 234 235 236 239 243 246 248 253 259 267 275 282 287 292 296 299 301 301 302 304 305 306 306 305 303 301 299 297 295 293 290 288 283 278 274 270 266 263 261 260
291 288 284 281 279 276 272 267 267 261 248 239 238 231 224 219 215 219 226 229 230 229 229 230 231 233 237 240 243 247 255 264 274 281 286 291 294 297 299 300 301 302 303 303 304 303 301 299 296 293 291 290 288 286 286 285 283 281 278 272 267 264 262
293 291 286 280 275 272 268 266 265 259 243 236 238 232 221 219 223 228 229 228 227 226 224 225 227 230 233 238 243 252 262 273 282 287 290 294 296 298 299 299 300 301 302 302 301 298 295 293 290 288 287 284 281 278 275 274 274 274 275 274 272 270 266
289 288 284 280 275 271 267 263 261 254 241 232 233 228 220 222 229 231 228 225 224 221 219 220 223 226 233 241 250 263 274 284 290 292 296 298 299 299 300 300 301 301 301 300 299 296 293 290 288 287 286 283 281 277 273 269 264 261 259 257 257 257 257
285 283 281 278 275 271 267 261 256 248 235 230 233 230 223 225 230 229 224 220 217 216 214 216 219 225 236 249 260 274 284 290 293 296 299 300 301 302 301 301 301 301 300 299 297 293 291 291 290 288 285 283 280 276 274 272 269 266 264 260 257 256 255
280 279 278 276 272 268 265 261 252 238 227 229 232 227 221 222 223 220 215 210 208 209 210 212 219 230 244 257 267 278 287 291 293 297 300 301 302 303 304 305 305 303 302 300 296 293 291 291 291 287 283 282 279 276 275 275 272 271 270 269 269 269 268
281 280 275 271 270 268 262 251 236 227 227 231 230 224 220 217 209 203 201 199 198 201 205 211 225 239 252 266 275 281 287 290 294 299 301 303 303 304 308 309 306 306 305 299 293 293 294 293 292 287 283 280 277 275 275 276 275 273 272 270 270 272 275
284 282 275 270 267 262 253 243 237 236 238 236 231 223 212 202 193 187 187 189 191 196 205 217 233 248 262 273 279 284 289 295 300 302 303 304 305 307 309 306 300 299 296 289 289 293 297 297 295 290 283 277 274 275 276 274 271 267 267 268 268 267 267
282 279 274 268 260 253 251 249 246 245 242 233 222 206 191 185 183 179 177 177 181 192 207 223 242 259 271 281 287 293 299 303 305 306 306 308 309 309 306 300 294 289 283 284 291 298 298 296 293 288 281 275 275 277 277 275 271 267 266 268 269 268 267
278 274 266 254 247 247 251 249 243 238 230 213 195 182 175 173 173 170 169 173 183 200 228 249 261 270 281 292 300 306 310 311 312 312 312 312 312 309 303 298 294 288 288 296 303 304 300 296 290 285 281 280 280 281 278 276 274 271 269 269 268 268 267
271 265 251 242 241 243 243 235 225 216 202 185 174 169 167 168 169 169 171 181 197 220 246 256 267 289 311 317 318 320 322 321 319 318 315 314 313 310 306 303 298 296 301 306 306 302 298 293 288 285 284 283 282 281 279 275 272 269 267 266 265 266 267
259 246 238 238 235 231 223 210 195 186 178 169 163 162 161 159 158 157 154 154 159 164 166 166 40 11 349 335 332 331 330 328 326 323 320 316 315 313 312 311 310 311 312 312 309 306 303 299 297 295 294 292 288 283 278 274 271 269 267 265 264 265 266